Погода в Петрозаводске

Погода в Петрозаводске : погода сейчас, прогноз погоды и архив. Всё, что Вы хотите узнать о погоде в Петрозаводске!

Хотите узнать прогноз погоды в Петрозаводске? Тогда Вам сюда: Погода в Петрозаводске

Поиск расширенной информации на нашем сайте:

Другие новости

Новости СМИ2

Главная страница сайта

Новости сайта

03.07.2017

Напоминаем, что на нашем специализированном сайте Метеоцентр.Азия вы можете получить высокодетализированные автоматические прогнозы погоды по пунктам России, СНГ и мира в авиационном формате (включающие направление и скорость ветра, видимость, явления погоды, количество и форму облачности, нижнюю и верхнюю границу облачности).

Рекомендуем: консультация юриста бесплатно круглосуточно консультация юриста бесплатно круглосуточно онлайн

Погода в Петрозаводске - сегодня

Время (UTC), дата Ветер
(°,м/с) 
Видим.   Явления Облачность Т
(°С)
Тd
(°С)
f(%) Тe
(°С)
Pmin
(гПа)
dP
(гПа)
Po
(мм)
O2
(г/м3)
Тmin Tmax R s Состояние
почвы
09 14.06.18 100 (В) 20000 м    8/5 300 м кучево-дожд., средняя 
[Cb calv|Ac trans]
+10.7 +3.9 63 +10  1016.3  0.3  752  291           
15 14.06.18 100 (В) 20000 м    6/3 600 м средняя 
[Sc|Ac trans]
+12.2 +4.3 58 +12  1016.5  -0.3  752  290      0.0     
21 14.06.18 160 (Ю) 20000 м    6/0 средняя 
[Ac trans]
+9.6 +5.1 73 +10  1016.9  0.4  753  292           
00 15.06.18 140 (ЮВ) 20000 м    9/6 600 м средняя 
[Sc|Ac As]
+9.6 +4 68 +10  1016.7  -0.2  753  292           
09 15.06.18 050 (СВ) 20000 м    9/3 600 м средняя 
[Cu hum|Ac trans]
+14.9 +9.9 72 +17  1016.8  753  286           
12 15.06.18 070 (В) 20000 м    8/5 600 м средняя, верхняя 
[Cu hum|Ac trans|Ci fib]
+17.4 +9.8 61 +19  1016  -0.6  752  283           
15 15.06.18 060 (СВ) 20000 м    8/4 600 м средняя, верхняя 
[Cu Sc|Ac trans|Ci fib]
+15.5 +9.1 66 +16  1015.7  -0.4  752  285           
21 15.06.18 210 (ЮЗ) 20000 м    6/0 средняя, верхняя 
[Ac trans|Ci fib]
+15.6 +11 74 +18  1016  0.6  752  285           
00 16.06.18 230 (ЮЗ) 20000 м    8/0 средняя, верхняя 
[Ac trans|Ci fib]
+16.7 +10.1 65 +18  1016.5  0.5  753  284           
09 16.06.18 220 (ЮЗ) 20000 м    9/0 средняя, верхняя 
[Ac trans|Ci sp]
+23.3 +11.7 48 +27  1018.2  0.4  754  278           
15 16.06.18 260 (З) 20000 м    9/1 600 м средняя, верхняя 
[Cu med, cong|Ac trans|Ci sp]
+23.3 +10.4 44 +25  1018  -0.4  754  278           
21 16.06.18 250 (З) 20000 м    8/0 верхняя 
[Ci fib]
+16.5 +8.4 59 +17  1018.7  0.4  754  285           
00 17.06.18 230 (ЮЗ) 20000 м    8/0 средняя, верхняя 
[Ac trans|Ci fib]
+13.5 +7.5 67 +14  1019.2  0.3  755  288           
09 17.06.18 080 (В) 20000 м    5/3 300 м средняя, верхняя 
[Cu med, cong|Ac trans|Ci fib]
+21.9 +9.1 44 +22  1018.9  0.1  755  280           
12 17.06.18 110 (В) 20000 м    8/4 300 м средняя 
[Cu Sc|Ac cast]
+22.3 +10.9 48 +25  1018.3  -0.5  754  279           
15 17.06.18 090 (В) 20000 м    8/5 600 м средняя 
[Sc|Ac As]
+21.5 +9.8 47 +22  1017.6  -0.8  754  280           
21 17.06.18 250 (З) 20000 м    9/0 средняя 
[Ac trans]
+18.7 +10.6 59 +22  1017.5  0.2  753  282           
00 18.06.18 150 (ЮВ) 20000 м    10/0 средняя 
[Ac und]
+15.7 +10.4 71 +19  1017.3  -0.3  753  285           
03 18.06.18 230 (ЮЗ) 20000 м  в посл. час ливневой дождь  10/6 600 м кучево-дожд., средняя 
[Cb cap|Ac und]
+15.7 +14.2 91 +24  1016.7  -0.6  753  284  +15.4    0.5     
09 18.06.18 080 (В) 20000 м    10/0 средняя 
[Ac As]
+19.1 +13.1 68 +26  1014.7  -0.8  751  280           
21 18.06.18 210 (ЮЗ) 20000 м    8/4 600 м средняя, верхняя 
[Sc|Ac trans|Ci fib]
+18.2 +14.6 80 +27  1009.6  -0.7  748  279           
03 19.06.18 230 (ЮЗ) 20000 м  {ливн. осадки}  10/3 600 м средняя 
[Sc|Ac As]
+15.2 +13.5 90 +21  1007.8  -1.8  746  282  +14.7       
00 20.06.18 250 (З) 4-10{10}  25000 м  слаб. ливневой дождь  10/8 450 м кучево-дожд., средняя 
[Cb cap|Ac und]
+10.5 +9.5 94 +11  994.6  -0.4  736  284           
03 20.06.18 260 (З) 6-13{13}  20000 м  {ливн. осадки}  8/4 300 м кучево-дожд., средняя 
[Cb cap|Ac trans]
+11.2 +8.8 85 +10  995.7  1.1  737  284  +10.2       
06 20.06.18 260 (З) 5-11{13}  20000 м  {ливн. осадки}  8/5 600 м верхняя 
[Cu med, cong|Ci fib]
+13.6 +8.6 72 +13  995.5  737  281  +10.2      мокрая 
Время (UTC), дата Ветер
(°,м/с) 
Видим.   Явления Облачность Т
(°С)
Тd
(°С)
f(%) Тe
(°С)
Pmin
(гПа)
dP
(гПа)
Po
(мм)
O2
(г/м3)
Тmin Tmax R s Состояние
почвы

Для получения пояснительной информации подведите курсор к названию столбца.

ПОГОДА в Петрозаводске - архив

Всё, что Вы хотите узнать о погоде в Петрозаводске - удобно и подробно!

Выберите нужную дату (начиная с 1 января 2015* года) и нажмите кнопку "Найти".
Будут отображены архивные сводки погоды по пункту Петрозаводск, начиная с указанной даты.


Отображать данные в формате CSV (для использования в таблицах Excel)


Внимание! Наш архив погоды предназначен исключительно для личного некоммерческого использования в познавательных целях. Если Вам необходимы официальные справки о состоянии погоды (для производственных, юридических, коммерческих и т.п. целей), обращайтесь в органы Росгидромета.

*Примечание: данная дата относится к архиву по метеостанциям СССР (Россия, СНГ, Балтия).
Архив по метеостанциям Зарубежной Европы и Азии (кроме Китая) хранится 10 дней, по другим регионам земного шара (Китай, Африка, Америка, Австралия, Океания) - 1 день.

Петрозаводск - район местоположения метеостанции


Название, широта, долгота, высота метеостанции:
Петрозаводск 61.8°ш. 34.3°д. 110 м над ур. моря [Российская Федерация]

Дополнительная информация

В oтличие oт бoльшинства пoгoдных сайтoв мы публикуем пoдрoбную метеoинфoрмацию в детальнoм прoфессиoнальнoм фoрмате.

Характеристики температуры и влажнoсти вoздуха измеряются на высoте 2 м в тени вдали oт зданий и деревьев.
Скoрoсть ветра измеряется на высoте 10 м (на урoвне рoста челoвека скoрoсть ветра ниже в 1.5-2 раза). Если метеoстанция нахoдится в гoрoде или в лесу, тo скoрoсть ветра занижена на 2-4 м/с пo сравнению с oткрытым местoм. Скoрoсть ветра над акватoриями крупных рек и oзёр, а также на вершинах хoлмoв на 2-5 м/с выше, чем в oбычных услoвиях.
Атмoсфернoе давление в разных тoчках местнoсти мoжет значительнo oтличаться oт давления на метеoстанции, в зависимoсти oт услoвий рельефа (при пoдъёме на 10 м давление пoнижается примернo на 1 мм рт.ст.).